QPF
0.00 0.00 0.00 0.00 0.00 0.00 0.00 0.00 0.00 0.00 0.00 0.00 0.00 0.00 0.00 0.00 0.00 0.02 0.08 0.18 0.05 0.09 0.08 0.05 0.06 0.10 0.14 0.18 0.12 0.04 0.03 0.01 0.00 0.00 0.00 0.00 0.00 0.00 0.00 0.00 0.00 0.00 0.00
0.00 0.00 0.00 0.00 0.00 0.00 0.00 0.00 0.00 0.00 0.00 0.00 0.00 0.00 0.00 0.00 0.01 0.04 0.17 0.33 0.20 0.17 0.00 0.01 0.03 0.09 0.13 0.11 0.04 0.01 0.00 0.00 0.00 0.00 0.00 0.00 0.00 0.00 0.00 0.00 0.00 0.00 0.00
0.00 0.00 0.00 0.00 0.00 0.00 0.00 0.00 0.00 0.00 0.00 0.00 0.00 0.00 0.00 0.00 0.02 0.13 0.26 0.69 0.56 0.14 0.01 0.03 0.04 0.12 0.10 0.03 0.00 0.00 0.00 0.00 0.00 0.00 0.00 0.00 0.00 0.00 0.00 0.00 0.00 0.00 0.00
0.00 0.00 0.00 0.00 0.00 0.00 0.00 0.00 0.00 0.00 0.00 0.00 0.00 0.00 0.00 0.01 0.06 0.29 0.40 0.47 0.43 0.14 0.02 0.05 0.07 0.07 0.02 0.00 0.00 0.00 0.00 0.00 0.00 0.00 0.00 0.00 0.00 0.00 0.00 0.00 0.00 0.00 0.00
0.00 0.00 0.00 0.00 0.00 0.00 0.00 0.00 0.00 0.00 0.00 0.00 0.00 0.00 0.01 0.02 0.03 0.22 0.27 0.34 0.33 0.08 0.10 0.04 0.02 0.00 0.00 0.00 0.00 0.00 0.00 0.00 0.00 0.00 0.00 0.00 0.00 0.00 0.00 0.00 0.00 0.00 0.00
0.00 0.00 0.00 0.00 0.00 0.00 0.00 0.00 0.00 0.00 0.00 0.00 0.00 0.00 0.01 0.01 0.01 0.03 0.09 0.06 0.04 0.03 0.01 0.00 0.00 0.00 0.00 0.00 0.00 0.00 0.00 0.00 0.00 0.00 0.00 0.00 0.00 0.00 0.00 0.00 0.01 0.01 0.00
0.00 0.00 0.00 0.00 0.00 0.00 0.00 0.00 0.00 0.00 0.00 0.00 0.00 0.00 0.01 0.01 0.00 0.03 0.08 0.01 0.02 0.01 0.00 0.00 0.00 0.00 0.00 0.00 0.00 0.00 0.00 0.00 0.00 0.00 0.00 0.00 0.00 0.00 0.00 0.00 0.00 0.00 0.00
0.00 0.00 0.00 0.00 0.00 0.00 0.00 0.00 0.00 0.00 0.00 0.00 0.00 0.00 0.01 0.00 0.00 0.01 0.04 0.02 0.00 0.00 0.00 0.00 0.00 0.00 0.00 0.00 0.00 0.00 0.00 0.00 0.00 0.00 0.00 0.00 0.00 0.00 0.00 0.00 0.00 0.00 0.00
0.00 0.00 0.00 0.00 0.00 0.00 0.00 0.00 0.00 0.00 0.00 0.01 0.01 0.01 0.00 0.00 0.00 0.00 0.00 0.00 0.00 0.00 0.00 0.00 0.00 0.00 0.00 0.00 0.00 0.00 0.00 0.00 0.00 0.00 0.00 0.00 0.00 0.00 0.00 0.00 0.00 0.00 0.00
0.00 0.00 0.00 0.00 0.00 0.00 0.00 0.00 0.00 0.00 0.01 0.01 0.00 0.00 0.00 0.00 0.00 0.00 0.00 0.00 0.00 0.00 0.00 0.00 0.00 0.00 0.00 0.00 0.00 0.00 0.00 0.00 0.00 0.00 0.00 0.00 0.00 0.00 0.00 0.00 0.00 0.00 0.00
0.00 0.00 0.00 0.00 0.00 0.00 0.00 0.00 0.00 0.00 0.00 0.00 0.00 0.00 0.00 0.00 0.00 0.00 0.00 0.00 0.00 0.00 0.00 0.00 0.00 0.00 0.00 0.00 0.00 0.00 0.00 0.00 0.00 0.00 0.00 0.00 0.00 0.00 0.00 0.00 0.00 0.00 0.00
0.00 0.00 0.00 0.00 0.00 0.00 0.00 0.00 0.00 0.00 0.00 0.00 0.00 0.00 0.00 0.00 0.00 0.00 0.00 0.00 0.00 0.00 0.00 0.00 0.00 0.00 0.00 0.00 0.00 0.00 0.00 0.00 0.00 0.00 0.00 0.00 0.00 0.00 0.00 0.00 0.00 0.00 0.00
0.00 0.00 0.00 0.00 0.00 0.00 0.00 0.00 0.00 0.00 0.00 0.00 0.00 0.00 0.00 0.00 0.00 0.00 0.00 0.00 0.00 0.00 0.00 0.00 0.00 0.00 0.00 0.00 0.00 0.00 0.00 0.00 0.00 0.00 0.00 0.00 0.00 0.00 0.00 0.00 0.00 0.00 0.00
0.00 0.00 0.00 0.00 0.00 0.00 0.00 0.00 0.00 0.00 0.00 0.00 0.00 0.00 0.00 0.00 0.00 0.00 0.00 0.00 0.00 0.00 0.00 0.00 0.00 0.00 0.00 0.00 0.00 0.00 0.00 0.00 0.00 0.00 0.00 0.00 0.00 0.00 0.00 0.00 0.00 0.00 0.00
0.00 0.00 0.00 0.00 0.00 0.00 0.00 0.00 0.00 0.00 0.00 0.00 0.00 0.00 0.00 0.00 0.00 0.00 0.00 0.00 0.00 0.00 0.00 0.00 0.00 0.00 0.00 0.00 0.00 0.00 0.00 0.00 0.00 0.00 0.00 0.00 0.00 0.00 0.00 0.00 0.00 0.00 0.00
0.00 0.00 0.00 0.00 0.00 0.00 0.00 0.00 0.00 0.00 0.00 0.00 0.00 0.00 0.00 0.00 0.00 0.00 0.00 0.00 0.00 0.00 0.00 0.00 0.00 0.00 0.00 0.00 0.00 0.00 0.00 0.00 0.00 0.00 0.00 0.00 0.00 0.00 0.00 0.00 0.00 0.00 0.00
0.00 0.00 0.00 0.00 0.00 0.00 0.00 0.00 0.00 0.00 0.00 0.00 0.00 0.00 0.00 0.00 0.00 0.00 0.00 0.00 0.00 0.00 0.00 0.00 0.00 0.00 0.00 0.00 0.00 0.00 0.00 0.00 0.00 0.00 0.00 0.00 0.00 0.00 0.00 0.00 0.00 0.00 0.00
0.00 0.00 0.00 0.00 0.00 0.00 0.00 0.00 0.00 0.00 0.00 0.00 0.00 0.00 0.00 0.00 0.00 0.00 0.00 0.00 0.00 0.00 0.00 0.00 0.00 0.00 0.00 0.00 0.00 0.00 0.00 0.00 0.00 0.00 0.00 0.00 0.00 0.00 0.00 0.00 0.00 0.00 0.00
0.00 0.00 0.00 0.00 0.00 0.00 0.00 0.00 0.00 0.00 0.00 0.00 0.00 0.00 0.00 0.00 0.00 0.00 0.00 0.00 0.00 0.00 0.00 0.00 0.00 0.00 0.00 0.00 0.00 0.00 0.00 0.00 0.00 0.00 0.00 0.00 0.00 0.00 0.00 0.00 0.00 0.00 0.00
0.00 0.00 0.00 0.00 0.00 0.00 0.00 0.00 0.00 0.00 0.00 0.00 0.00 0.00 0.00 0.00 0.00 0.00 0.00 0.00 0.00 0.00 0.00 0.00 0.00 0.00 0.00 0.00 0.00 0.00 0.00 0.00 0.00 0.00 0.00 0.00 0.00 0.00 0.00 0.00 0.00 0.00 0.00
0.00 0.00 0.00 0.00 0.00 0.00 0.00 0.00 0.00 0.00 0.00 0.00 0.00 0.00 0.00 0.00 0.00 0.00 0.00 0.00 0.00 0.00 0.00 0.00 0.00 0.00 0.00 0.00 0.00 0.00 0.00 0.00 0.00 0.00 0.00 0.00 0.00 0.00 0.00 0.00 0.00 0.00 0.00
0.00 0.00 0.00 0.00 0.00 0.00 0.00 0.00 0.00 0.00 0.00 0.00 0.00 0.00 0.00 0.00 0.00 0.00 0.00 0.00 0.00 0.00 0.00 0.00 0.00 0.00 0.00 0.00 0.00 0.00 0.00 0.00 0.00 0.00 0.00 0.00 0.00 0.00 0.00 0.00 0.00 0.00 0.00
0.00 0.00 0.00 0.00 0.00 0.00 0.00 0.00 0.00 0.00 0.00 0.00 0.00 0.00 0.00 0.00 0.00 0.00 0.00 0.00 0.00 0.00 0.00 0.00 0.00 0.00 0.00 0.00 0.00 0.00 0.00 0.00 0.00 0.00 0.00 0.00 0.00 0.00 0.00 0.00 0.00 0.00 0.00
0.00 0.00 0.00 0.00 0.00 0.00 0.00 0.00 0.00 0.00 0.00 0.00 0.00 0.00 0.00 0.00 0.00 0.00 0.00 0.00 0.00 0.00 0.00 0.00 0.00 0.00 0.00 0.00 0.00 0.00 0.00 0.00 0.00 0.00 0.00 0.00 0.00 0.00 0.00 0.00 0.00 0.00 0.00
0.00 0.00 0.00 0.00 0.00 0.00 0.00 0.00 0.00 0.00 0.00 0.00 0.00 0.00 0.00 0.00 0.00 0.00 0.00 0.00 0.00 0.00 0.00 0.00 0.00 0.00 0.00 0.00 0.00 0.00 0.00 0.00 0.00 0.00 0.00 0.00 0.00 0.00 0.00 0.00 0.00 0.00 0.00
0.03 0.00 0.00 0.00 0.00 0.00 0.00 0.00 0.00 0.00 0.00 0.00 0.00 0.00 0.00 0.00 0.00 0.00 0.00 0.00 0.00 0.00 0.00 0.00 0.00 0.00 0.00 0.00 0.00 0.00 0.00 0.00 0.00 0.00 0.00 0.00 0.00 0.00 0.00 0.00 0.00 0.00 0.00
MSLP
1007.80 1008.51 1009.12 1009.64 1009.98 1010.29 1010.39 1010.23 1010.34 1010.57 1010.78 1010.76 1010.74 1011.09 1011.45 1011.82 1011.94 1012.45 1012.89 1013.74 1014.80 1014.55 1014.62 1014.64 1014.65 1014.78 1014.87 1015.02 1014.88 1014.62 1014.50 1014.63 1014.75 1014.63 1014.41 1014.17 1013.95 1013.90 1013.91 1013.44 1013.20 1013.14 1012.80
1006.84 1007.68 1008.27 1008.74 1009.07 1009.20 1009.40 1009.63 1009.88 1010.11 1010.12 1010.10 1010.17 1010.56 1010.95 1011.56 1011.72 1012.02 1012.49 1013.86 1015.09 1014.10 1014.25 1014.35 1014.48 1014.70 1014.88 1014.93 1015.00 1014.68 1014.80 1014.87 1015.13 1014.92 1014.65 1014.40 1014.22 1014.50 1014.10 1013.82 1013.60 1012.98 1012.50
1006.00 1006.91 1007.42 1007.78 1008.10 1008.50 1008.76 1008.93 1009.16 1009.42 1009.50 1009.49 1009.69 1010.32 1010.88 1011.49 1011.54 1011.61 1012.32 1012.87 1013.90 1013.45 1014.20 1014.18 1014.45 1014.70 1015.05 1015.17 1014.79 1015.10 1015.32 1015.34 1015.36 1015.20 1015.26 1014.88 1014.89 1014.80 1014.46 1014.27 1013.80 1013.00 1012.32
1005.08 1005.91 1006.45 1006.72 1007.19 1007.60 1007.98 1008.31 1008.58 1008.91 1009.06 1009.18 1009.58 1009.89 1010.40 1010.91 1011.14 1011.46 1012.41 1013.26 1013.47 1014.03 1014.13 1014.26 1014.83 1015.18 1015.51 1015.53 1015.86 1015.96 1016.06 1016.04 1015.79 1015.75 1015.69 1015.75 1015.74 1015.49 1015.22 1014.72 1013.76 1013.18 1012.57
1004.01 1004.89 1005.41 1006.00 1006.32 1006.81 1007.32 1007.72 1008.02 1008.23 1008.42 1008.67 1008.92 1009.37 1009.88 1010.32 1010.63 1011.19 1012.53 1013.48 1013.87 1014.12 1014.22 1014.98 1015.56 1015.76 1015.87 1016.02 1016.26 1016.68 1016.56 1016.42 1016.34 1016.43 1016.39 1016.56 1016.54 1016.10 1015.77 1015.24 1014.54 1013.61 1013.10
1003.14 1003.91 1004.68 1005.38 1005.89 1006.26 1006.68 1007.06 1007.46 1007.72 1007.91 1008.14 1008.65 1009.15 1009.59 1009.99 1010.70 1011.51 1012.51 1013.21 1013.72 1013.96 1014.74 1015.47 1015.80 1015.98 1016.29 1016.52 1016.70 1016.74 1016.62 1016.71 1016.90 1017.05 1017.12 1017.28 1017.45 1017.15 1016.48 1015.79 1014.98 1014.25 1013.50
1002.45 1003.22 1003.96 1004.63 1005.17 1005.71 1006.23 1006.62 1006.98 1007.29 1007.56 1008.08 1008.48 1008.97 1009.53 1010.33 1010.92 1011.79 1012.39 1012.82 1013.33 1013.93 1014.54 1015.14 1015.43 1016.44 1016.66 1016.82 1016.86 1016.79 1016.65 1016.73 1016.85 1017.16 1017.33 1017.59 1017.88 1017.74 1017.06 1016.11 1015.49 1014.98 1014.47
1002.04 1002.68 1003.35 1004.01 1004.68 1005.32 1005.84 1006.28 1006.66 1007.04 1007.54 1007.99 1008.58 1009.09 1009.80 1011.13 1011.38 1011.91 1012.44 1013.04 1013.66 1014.27 1014.88 1015.56 1016.42 1017.06 1017.16 1016.93 1016.75 1016.72 1016.74 1016.84 1016.86 1016.97 1017.20 1017.56 1017.94 1017.85 1017.57 1016.93 1016.31 1015.74 1015.05
1001.60 1002.22 1002.96 1003.66 1004.39 1005.08 1005.64 1006.10 1006.51 1007.03 1007.59 1008.25 1008.79 1009.65 1010.56 1011.60 1011.83 1012.30 1012.76 1013.44 1014.42 1015.23 1015.69 1016.35 1017.06 1017.57 1017.48 1017.14 1017.00 1017.20 1017.10 1017.11 1017.01 1016.85 1017.12 1017.50 1017.78 1017.76 1017.76 1017.27 1016.72 1016.15 1015.66
1001.14 1001.94 1002.71 1003.42 1004.11 1004.78 1005.49 1006.06 1006.60 1007.20 1007.98 1008.98 1009.68 1010.24 1011.00 1011.82 1012.51 1012.84 1013.22 1013.90 1014.87 1015.80 1016.66 1017.29 1017.71 1017.74 1017.72 1017.50 1017.50 1017.55 1017.58 1017.67 1017.49 1017.14 1017.16 1017.46 1017.78 1017.89 1017.62 1017.80 1017.59 1017.25 1017.17
1000.86 1001.66 1002.49 1003.26 1003.93 1004.61 1005.43 1006.08 1006.89 1007.55 1008.70 1009.70 1010.32 1010.91 1011.35 1012.17 1013.15 1013.27 1013.42 1014.03 1014.84 1015.80 1016.82 1017.63 1018.14 1018.04 1017.96 1017.94 1017.99 1018.01 1018.24 1018.15 1017.72 1017.38 1017.05 1017.42 1017.88 1017.77 1017.86 1018.28 1018.21 1017.78 1017.68
1000.61 1001.47 1002.36 1003.24 1003.94 1004.69 1005.60 1006.58 1007.36 1008.26 1009.34 1010.13 1010.78 1011.36 1011.96 1012.85 1013.17 1013.15 1013.34 1013.96 1014.70 1015.48 1016.70 1017.74 1018.22 1018.19 1018.23 1018.20 1018.26 1018.26 1018.10 1017.79 1017.53 1017.25 1017.42 1017.64 1017.67 1017.55 1018.09 1018.55 1018.68 1018.41 1018.12
1000.71 1001.66 1002.62 1003.49 1004.18 1005.06 1005.89 1006.98 1007.96 1008.87 1009.69 1010.38 1010.94 1011.73 1012.51 1013.35 1013.88 1013.63 1013.97 1014.52 1015.10 1016.10 1016.95 1017.70 1018.14 1018.42 1018.49 1018.43 1018.28 1018.19 1017.84 1017.58 1017.44 1017.56 1017.71 1017.96 1017.84 1017.62 1017.86 1018.29 1018.75 1018.69 1018.45
1001.06 1002.05 1003.01 1003.92 1004.84 1005.79 1006.73 1007.48 1008.31 1008.94 1009.70 1010.16 1010.89 1011.77 1012.54 1013.47 1014.00 1014.51 1014.98 1015.57 1016.04 1016.72 1017.36 1017.88 1018.25 1018.38 1018.45 1018.43 1018.40 1018.19 1018.13 1018.05 1018.04 1017.87 1017.98 1017.91 1017.98 1018.10 1018.13 1018.16 1018.26 1018.36 1018.72
1001.29 1002.16 1003.34 1004.46 1005.30 1006.40 1007.60 1008.39 1008.56 1008.99 1009.36 1009.66 1010.41 1011.06 1011.96 1013.10 1013.95 1014.39 1014.98 1015.64 1016.26 1016.81 1017.40 1017.94 1018.15 1018.16 1018.19 1018.17 1018.24 1018.30 1018.32 1018.15 1018.23 1018.17 1018.25 1018.38 1018.36 1018.49 1018.74 1018.80 1018.84 1018.91 1019.04
1001.20 1002.22 1003.44 1004.66 1005.90 1006.87 1007.83 1008.97 1009.63 1009.75 1009.82 1010.09 1010.24 1010.90 1012.01 1012.92 1013.89 1014.60 1015.14 1015.68 1016.29 1016.70 1017.10 1017.40 1017.45 1017.46 1017.72 1017.95 1018.16 1018.40 1018.50 1018.58 1018.44 1018.32 1018.36 1018.61 1018.84 1018.93 1019.13 1019.28 1019.41 1019.62 1019.70
1001.35 1002.47 1003.76 1004.74 1005.64 1006.56 1007.60 1008.42 1009.70 1010.94 1010.57 1010.42 1010.37 1011.22 1012.36 1013.32 1014.11 1014.77 1015.33 1015.90 1016.28 1016.62 1016.82 1016.67 1017.00 1017.31 1017.59 1017.87 1018.12 1018.41 1018.82 1018.74 1018.65 1018.52 1018.61 1018.70 1018.93 1019.06 1019.30 1019.59 1019.88 1020.11 1020.27
1001.72 1002.55 1003.42 1004.36 1005.23 1006.18 1007.02 1007.91 1008.90 1009.63 1010.44 1011.53 1012.00 1012.17 1012.66 1013.50 1014.41 1015.02 1015.58 1016.10 1016.74 1016.73 1016.59 1016.38 1016.88 1017.20 1017.56 1017.78 1018.06 1018.34 1018.60 1018.78 1018.83 1018.82 1018.79 1019.08 1019.30 1019.56 1019.74 1019.89 1020.13 1020.40 1020.61
1001.50 1002.21 1002.84 1004.04 1004.89 1005.58 1006.44 1007.22 1007.89 1008.83 1010.01 1011.36 1012.70 1013.52 1013.77 1014.05 1014.53 1014.99 1015.34 1015.72 1015.87 1015.72 1015.85 1016.28 1016.68 1017.10 1017.48 1017.90 1018.36 1018.76 1018.93 1019.12 1019.10 1018.97 1019.05 1019.02 1019.26 1019.67 1019.97 1020.10 1020.32 1020.58 1020.86
1001.48 1001.79 1002.56 1003.49 1004.32 1005.13 1005.73 1006.34 1007.12 1008.26 1009.92 1011.03 1011.88 1012.94 1013.88 1014.40 1014.97 1015.39 1015.26 1015.17 1014.95 1014.99 1015.45 1016.20 1016.66 1016.99 1017.43 1017.99 1018.56 1018.88 1019.15 1019.28 1019.21 1019.13 1019.20 1019.20 1019.21 1019.44 1019.91 1020.13 1020.30 1020.56 1020.88
1000.98 1001.70 1002.19 1003.00 1003.92 1004.26 1004.84 1005.47 1006.32 1007.77 1009.07 1010.24 1011.20 1012.11 1012.91 1013.32 1014.00 1014.39 1014.64 1014.46 1014.22 1014.62 1015.22 1015.87 1016.50 1017.05 1017.52 1018.04 1018.38 1018.58 1018.68 1018.86 1019.00 1019.22 1019.35 1019.46 1019.45 1019.62 1019.90 1020.21 1020.43 1020.57 1020.84
1000.22 1000.99 1001.34 1002.15 1002.81 1003.24 1003.75 1004.66 1005.87 1007.10 1008.37 1009.48 1010.63 1012.12 1012.82 1012.78 1013.33 1013.75 1013.82 1013.64 1013.89 1014.40 1015.04 1015.72 1016.37 1016.96 1017.30 1017.61 1017.94 1018.06 1018.34 1018.70 1018.91 1019.10 1019.31 1019.38 1019.53 1019.68 1019.90 1020.12 1020.49 1020.92 1021.36
1000.25 1000.84 1001.27 1001.48 1001.66 1002.42 1003.19 1004.14 1005.23 1006.29 1007.44 1008.54 1010.03 1011.49 1012.36 1012.10 1012.31 1012.85 1013.12 1013.22 1013.80 1014.34 1014.94 1015.46 1016.06 1016.53 1016.88 1017.33 1017.60 1017.74 1018.06 1018.58 1018.88 1018.96 1019.28 1019.50 1019.54 1019.78 1020.00 1020.32 1020.80 1021.41 1021.80
1000.28 1000.60 1000.79 1000.90 1001.28 1002.05 1002.70 1003.52 1004.36 1005.34 1006.30 1007.39 1008.94 1010.39 1011.18 1011.33 1011.07 1011.79 1012.25 1012.84 1013.65 1014.42 1015.07 1015.54 1015.82 1016.13 1016.89 1017.35 1017.56 1017.72 1018.00 1018.50 1018.86 1018.96 1019.04 1019.54 1019.86 1019.86 1020.26 1020.76 1021.32 1021.60 1021.86
999.91 1000.16 1000.06 1000.26 1001.11 1001.72 1002.45 1003.12 1003.98 1004.82 1005.68 1006.68 1008.00 1009.29 1010.04 1010.40 1010.17 1010.75 1011.57 1012.50 1013.40 1014.26 1014.94 1015.26 1015.58 1016.11 1016.81 1017.20 1017.39 1018.14 1018.53 1018.92 1019.57 1019.63 1019.34 1019.48 1019.79 1020.05 1020.37 1021.01 1021.36 1021.71 1021.92
999.88 999.55 999.59 1000.01 1000.85 1001.69 1002.24 1002.97 1003.63 1004.32 1005.10 1005.94 1007.16 1008.25 1009.08 1009.38 1009.48 1010.13 1011.11 1012.17 1013.03 1013.92 1014.59 1015.04 1015.47 1016.11 1016.71 1017.06 1017.85 1018.66 1018.72 1019.06 1019.56 1019.98 1020.08 1019.61 1019.98 1020.24 1020.56 1020.89 1021.36 1021.76 1021.82
Thickness
5856 5852 5849 5848 5848 5846 5846 5847 5847 5845 5842 5841 5839 5833 5827 5820 5815 5804 5794 5779 5756 5758 5764 5760 5751 5746 5737 5727 5720 5715 5708 5697 5680 5675 5671 5665 5658 5650 5643 5639 5632 5623 5615
5863 5858 5855 5855 5854 5853 5853 5852 5851 5847 5847 5845 5843 5835 5825 5815 5813 5804 5790 5763 5749 5754 5764 5758 5749 5740 5731 5723 5713 5711 5701 5691 5678 5668 5665 5659 5653 5642 5638 5632 5625 5619 5609
5869 5863 5861 5860 5860 5857 5856 5857 5855 5851 5850 5849 5844 5834 5825 5815 5810 5805 5792 5761 5764 5765 5759 5753 5743 5735 5722 5714 5714 5704 5693 5684 5675 5666 5656 5653 5645 5639 5633 5625 5618 5613 5604
5875 5870 5866 5868 5867 5865 5863 5859 5857 5855 5852 5849 5844 5838 5829 5819 5813 5803 5790 5774 5772 5765 5758 5753 5735 5726 5716 5712 5703 5694 5684 5675 5668 5658 5650 5644 5636 5630 5624 5618 5617 5608 5603
5880 5876 5875 5875 5874 5870 5865 5863 5861 5859 5856 5852 5846 5839 5831 5822 5815 5804 5784 5772 5764 5759 5753 5739 5727 5722 5714 5707 5697 5685 5678 5670 5661 5651 5644 5636 5628 5623 5618 5612 5605 5605 5596
5887 5883 5883 5879 5875 5872 5870 5867 5863 5860 5858 5853 5844 5837 5830 5823 5810 5799 5787 5777 5768 5761 5748 5735 5726 5718 5709 5700 5692 5683 5676 5665 5653 5645 5637 5627 5618 5612 5608 5605 5602 5598 5591
5892 5890 5887 5884 5879 5876 5873 5869 5865 5861 5857 5849 5843 5837 5829 5818 5805 5794 5786 5779 5769 5759 5748 5736 5729 5714 5706 5697 5688 5681 5673 5664 5654 5643 5633 5624 5614 5608 5605 5602 5597 5589 5584
5893 5892 5891 5887 5882 5879 5874 5869 5864 5860 5853 5847 5840 5834 5824 5807 5800 5792 5785 5775 5765 5754 5743 5731 5717 5705 5698 5694 5688 5679 5670 5660 5652 5644 5634 5624 5614 5605 5598 5594 5587 5582 5580
5895 5894 5892 5889 5883 5878 5871 5867 5863 5856 5850 5842 5836 5825 5814 5801 5794 5787 5781 5770 5755 5742 5734 5722 5710 5699 5693 5689 5683 5672 5665 5656 5650 5643 5634 5623 5614 5606 5597 5593 5591 5587 5583
5897 5895 5894 5890 5884 5877 5871 5865 5860 5853 5844 5834 5824 5818 5807 5796 5785 5780 5774 5762 5748 5735 5722 5711 5702 5696 5689 5683 5677 5669 5659 5651 5645 5640 5634 5624 5614 5605 5599 5590 5585 5579 5573
5901 5897 5892 5888 5882 5877 5870 5863 5854 5846 5833 5823 5814 5807 5800 5791 5778 5774 5769 5759 5746 5732 5718 5707 5697 5691 5684 5678 5670 5663 5652 5646 5643 5638 5634 5623 5612 5604 5595 5584 5579 5576 5570
5899 5894 5889 5884 5880 5873 5864 5855 5847 5836 5824 5814 5805 5797 5791 5781 5775 5771 5766 5757 5747 5733 5718 5704 5693 5687 5680 5674 5667 5658 5652 5647 5643 5638 5628 5619 5611 5604 5592 5582 5576 5572 5568
5892 5886 5882 5877 5874 5866 5857 5847 5836 5827 5817 5807 5799 5788 5780 5773 5766 5762 5756 5747 5739 5725 5714 5701 5690 5682 5674 5669 5665 5658 5653 5648 5642 5634 5624 5614 5608 5603 5593 5584 5576 5571 5568
5883 5877 5873 5867 5860 5854 5849 5842 5831 5822 5812 5805 5796 5785 5778 5769 5762 5754 5746 5736 5727 5717 5706 5696 5687 5680 5673 5667 5661 5656 5650 5643 5636 5630 5621 5615 5607 5597 5591 5588 5582 5577 5569
5875 5871 5863 5855 5851 5843 5834 5830 5825 5820 5814 5806 5798 5791 5780 5767 5760 5754 5745 5734 5724 5714 5704 5693 5685 5679 5672 5667 5661 5653 5646 5642 5634 5626 5618 5610 5602 5594 5587 5583 5579 5575 5570
5868 5862 5855 5847 5838 5832 5826 5816 5807 5804 5802 5801 5799 5792 5781 5769 5757 5747 5739 5730 5720 5712 5703 5693 5688 5683 5675 5667 5659 5650 5644 5637 5632 5626 5618 5608 5598 5592 5586 5582 5578 5574 5570
5859 5853 5844 5839 5834 5827 5820 5814 5801 5790 5790 5789 5789 5783 5774 5761 5751 5742 5733 5724 5716 5708 5701 5697 5688 5680 5673 5666 5658 5650 5640 5636 5631 5625 5617 5610 5600 5593 5588 5582 5577 5573 5569
5850 5842 5840 5834 5830 5824 5817 5811 5804 5798 5789 5781 5772 5771 5763 5754 5744 5736 5727 5720 5709 5703 5698 5695 5685 5679 5671 5665 5658 5651 5642 5636 5630 5624 5619 5609 5600 5592 5587 5582 5579 5574 5570
5841 5839 5838 5830 5825 5820 5815 5809 5806 5798 5786 5774 5763 5755 5749 5744 5738 5732 5726 5719 5712 5709 5702 5692 5684 5678 5670 5662 5654 5646 5639 5633 5628 5624 5619 5614 5605 5595 5588 5585 5580 5576 5572
5832 5832 5830 5825 5819 5814 5812 5808 5802 5793 5778 5770 5764 5755 5745 5739 5732 5725 5722 5718 5716 5711 5701 5689 5682 5677 5669 5661 5652 5644 5638 5632 5628 5624 5620 5615 5610 5602 5593 5589 5585 5580 5576
5828 5825 5825 5821 5813 5814 5811 5807 5801 5789 5778 5770 5763 5755 5747 5743 5734 5727 5721 5719 5717 5709 5701 5691 5682 5674 5666 5658 5652 5646 5641 5636 5631 5624 5620 5615 5611 5606 5599 5592 5588 5585 5582
5828 5823 5824 5818 5816 5813 5812 5807 5797 5787 5778 5770 5761 5748 5739 5741 5733 5726 5722 5721 5716 5708 5700 5690 5681 5672 5666 5661 5655 5650 5644 5637 5632 5626 5620 5618 5613 5608 5604 5599 5593 5588 5582
5820 5815 5814 5814 5817 5810 5808 5803 5795 5787 5779 5772 5759 5747 5739 5741 5736 5728 5723 5720 5712 5705 5696 5689 5681 5673 5667 5660 5655 5651 5645 5637 5631 5627 5620 5616 5614 5610 5605 5600 5594 5587 5582
5811 5808 5808 5810 5810 5806 5803 5798 5795 5787 5783 5776 5763 5748 5741 5740 5741 5733 5727 5719 5709 5700 5690 5684 5679 5673 5664 5658 5653 5649 5644 5638 5631 5627 5623 5616 5611 5611 5605 5598 5591 5587 5584
5805 5803 5805 5805 5801 5799 5795 5793 5788 5784 5779 5773 5763 5750 5744 5740 5742 5736 5728 5717 5707 5696 5687 5682 5677 5670 5662 5656 5652 5646 5642 5636 5628 5624 5621 5617 5613 5609 5605 5598 5593 5588 5585
5790 5798 5800 5799 5795 5791 5788 5785 5782 5780 5775 5771 5763 5752 5745 5742 5741 5735 5725 5714 5704 5693 5685 5679 5673 5667 5659 5653 5646 5640 5638 5633 5627 5622 5618 5616 5611 5607 5603 5599 5594 5589 5587